Surface/Precipitation History
06/01/2015 11:35  to  6/2/2015 11:35
Change End Date:
Date/Time
(MDT)
Sf
Temp Chem Water Layer Surface Precipitation
Sf Sub Frz Factor Pct Depth IcePct Cond Salin Type Intens Accum Rate
06/02/2015 11:30 Wet 55.6F 65F 32F 5 0% 0.00 in 0% 0 mhos 10 Rain Slight 0.96 in 0.0 iph
06/02/2015 11:28 Wet 55.6F 65F 32F 5 0% 0.00 in 0% 0 mhos 10 Rain Slight 0.96 in 0.0 iph
06/02/2015 11:18 Wet 54.7F 65F 32F 5 0% 0.00 in 0% 0 mhos 11 Rain Slight 0.96 in 0.0 iph
06/02/2015 11:15 Wet 54.9F 65F 32F 5 0% 0.00 in 0% 0 mhos 8 Rain Slight 0.95 in 0.0 iph
06/02/2015 11:08 Wet 54.7F 65F 32F 5 0% 0.00 in 0% 0 mhos 9 Rain Slight 0.95 in 0.0 iph
06/02/2015 11:01 Wet 55.0F 65F 32F 5 0% 0.00 in 0% 0 mhos 8 Rain Slight 0.95 in 0.0 iph
06/02/2015 10:58 Wet 55.0F 65F 32F 5 0% 0.00 in 0% 0 mhos 10 Rain Slight 0.95 in 0.0 iph
06/02/2015 10:48 Wet 54.9F 66F 32F 5 0% 0.00 in 0% 0 mhos 10 Rain Slight 0.95 in 0.0 iph
06/02/2015 10:38 Wet 55.8F 66F 32F 5 0% 0.00 in 0% 0 mhos 12 None None 0.94 in 0.0 iph
06/02/2015 10:30 Wet 56.8F 66F 32F 5 0% 0.00 in 0% 0 mhos 12 Rain Slight 0.94 in 0.0 iph
06/02/2015 10:28 Wet 56.5F 66F 32F 5 0% 0.00 in 0% 0 mhos 11 None None 0.94 in 0.0 iph
06/02/2015 10:18 Wet 56.3F 66F 32F 5 0% 0.00 in 0% 0 mhos 9 Rain Slight 0.94 in 0.0 iph
06/02/2015 10:15 Wet 56.3F 66F 32F 5 0% 0.00 in 0% 0 mhos 11 Rain Slight 0.94 in 0.0 iph
06/02/2015 10:08 Wet 55.6F 66F 32F 5 0% 0.00 in 0% 0 mhos 10 Rain Slight 0.94 in 0.0 iph
06/02/2015 09:58 Wet 54.9F 66F 32F 5 0% 0.00 in 0% 0 mhos 6 None None 0.94 in 0.0 iph
Date/Time
(MDT)
Sf
Temp Chem Water Layer Surface Precipitation
Sf Sub Frz Factor Pct Depth IcePct Cond Salin Type Intens Accum Rate
06/02/2015 09:47 Wet 55.4F 66F 32F 5 0% 0.00 in 0% 0 mhos 11 Rain Slight 0.94 in 0.0 iph
06/02/2015 09:45 Wet 55.6F 66F 32F 5 0% 0.00 in 0% 0 mhos 10 Rain Slight 0.94 in 0.0 iph
06/02/2015 09:37 Wet 55.8F 66F 32F 5 0% 0.00 in 0% 0 mhos 8 Rain Slight 0.94 in 0.0 iph
06/02/2015 09:30 Wet 54.5F 66F 32F 5 0% 0.00 in 0% 0 mhos 5 Rain Slight 0.94 in 0.0 iph
06/02/2015 09:27 Wet 54.5F 66F 32F 5 0% 0.00 in 0% 0 mhos 8 Rain Slight 0.94 in 0.0 iph
06/02/2015 09:17 Wet 54.5F 66F 32F 5 0% 0.00 in 0% 0 mhos 6 Rain Slight 0.93 in 0.0 iph
06/02/2015 09:15 Wet 54.5F 66F 32F 5 0% 0.00 in 0% 0 mhos 9 Rain Slight 0.93 in 0.0 iph
06/02/2015 09:07 Wet 54.0F 66F 32F 5 0% 0.00 in 0% 0 mhos 8 Rain Slight 0.93 in 0.0 iph
06/02/2015 09:00 Wet 53.6F 66F 32F 5 0% 0.00 in 0% 0 mhos 5 Rain Slight 0.93 in 0.0 iph
06/02/2015 08:57 Wet 53.4F 66F 32F 5 0% 0.00 in 0% 0 mhos 11 Rain Slight 0.93 in 0.0 iph
06/02/2015 08:47 Wet 53.6F 66F 32F 10 0% 0.00 in 0% 0 mhos 10 Rain Slight 0.93 in 0.0 iph
06/02/2015 08:45 Wet 53.6F 66F 32F 5 0% 0.00 in 0% 0 mhos 8 Rain Slight 0.93 in 0.0 iph
06/02/2015 08:37 Wet 53.4F 66F 32F 5 0% 0.00 in 0% 0 mhos 14 Rain Slight 0.93 in 0.0 iph
06/02/2015 08:30 Wet 53.6F 66F 32F 5 0% 0.00 in 0% 0 mhos 15 Rain Slight 0.92 in 0.0 iph
06/02/2015 08:27 Wet 53.4F 66F 32F 5 0% 0.00 in 0% 0 mhos 15 Rain Slight 0.92 in 0.0 iph
Date/Time
(MDT)
Sf
Temp Chem Water Layer Surface Precipitation
Sf Sub Frz Factor Pct Depth IcePct Cond Salin Type Intens Accum Rate
06/02/2015 08:17 Wet 53.2F 67F 32F 5 0% 0.00 in 0% 0 mhos 13 Rain Slight 0.92 in 0.0 iph
06/02/2015 08:15 Wet 52.9F 67F 32F 5 0% 0.00 in 0% 0 mhos 13 None None 0.92 in 0.0 iph
06/02/2015 08:07 Wet 52.9F 67F 32F 5 0% 0.00 in 0% 0 mhos 12 None None 0.92 in 0.0 iph
06/02/2015 08:00 Wet 53.1F 67F 32F 5 0% 0.00 in 0% 0 mhos 12 None None 0.92 in 0.0 iph
06/02/2015 07:57 Wet 53.1F 67F 32F 5 0% 0.00 in 0% 0 mhos 11 None None 0.92 in 0.0 iph
06/02/2015 07:47 Wet 53.4F 67F 32F 5 0% 0.00 in 0% 0 mhos 10 None None 0.92 in 0.0 iph
06/02/2015 07:45 Wet 53.2F 67F 32F 5 0% 0.00 in 0% 0 mhos 9 None None 0.92 in 0.0 iph
06/02/2015 07:37 Wet 53.4F 67F 32F 5 0% 0.00 in 0% 0 mhos 8 None None 0.92 in 0.0 iph
06/02/2015 07:30 Wet 53.4F 67F 32F 5 0% 0.00 in 0% 0 mhos 8 None None 0.92 in 0.0 iph
06/02/2015 07:27 Wet 53.4F 67F 32F 5 0% 0.00 in 0% 0 mhos 7 None None 0.92 in 0.0 iph
06/02/2015 07:17 Wet 53.4F 67F 32F 5 0% 0.00 in 0% 0 mhos 6 None None 0.92 in 0.0 iph
06/02/2015 07:16 Wet 53.4F 67F 32F 5 0% 0.00 in 0% 0 mhos 5 None None 0.92 in 0.0 iph
06/02/2015 07:07 Wet 53.4F 67F 32F 5 0% 0.00 in 0% 0 mhos 7 None None 0.92 in 0.0 iph
06/02/2015 07:01 Wet 53.8F 67F 32F 5 0% 0.00 in 0% 0 mhos 7 None None 0.92 in 0.0 iph
06/02/2015 06:57 Wet 53.6F 67F 32F 5 0% 0.00 in 0% 0 mhos 5 None None 0.92 in 0.0 iph
Date/Time
(MDT)
Sf
Temp Chem Water Layer Surface Precipitation
Sf Sub Frz Factor Pct Depth IcePct Cond Salin Type Intens Accum Rate
06/02/2015 06:47 Wet 53.6F 67F 32F 5 0% 0.00 in 0% 0 mhos 5 Rain Slight 0.92 in 0.0 iph
06/02/2015 06:37 Wet 54.0F 67F 32F 5 0% 0.00 in 0% 0 mhos 6 None None 0.92 in 0.0 iph
06/02/2015 06:30 Wet 54.0F 67F 32F 5 0% 0.00 in 0% 0 mhos 3 Rain Slight 0.92 in 0.0 iph
06/02/2015 06:26 Wet 53.8F 67F 32F 5 0% 0.00 in 0% 0 mhos 3 Rain Slight 0.92 in 0.0 iph
06/02/2015 06:16 Wet 54.0F 67F 32F 5 0% 0.00 in 0% 0 mhos 3 Rain Slight 0.91 in 0.0 iph
06/02/2015 06:15 Wet 54.3F 67F 32F 5 0% 0.00 in 0% 0 mhos 2 Rain Slight 0.91 in 0.0 iph
06/02/2015 06:06 Wet 54.1F 67F 32F 5 0% 0.00 in 0% 0 mhos 3 Rain Slight 0.91 in 0.0 iph
06/02/2015 06:00 Wet 54.1F 67F 32F 5 0% 0.00 in 0% 0 mhos 4 Rain Slight 0.91 in 0.0 iph
06/02/2015 05:56 Wet 54.1F 67F 32F 5 0% 0.00 in 0% 0 mhos 4 Rain Slight 0.91 in 0.0 iph
06/02/2015 05:46 Wet 54.1F 67F 32F 5 0% 0.00 in 0% 0 mhos 2 Rain Slight 0.91 in 0.0 iph
06/02/2015 05:45 Wet 54.1F 67F 32F 5 0% 0.00 in 0% 0 mhos 2 Rain Slight 0.91 in 0.0 iph
06/02/2015 05:36 Wet 54.1F 67F 32F 5 0% 0.00 in 0% 0 mhos 3 None None 0.91 in 0.0 iph
06/02/2015 05:30 Wet 54.9F 67F 32F 5 0% 0.00 in 0% 0 mhos 3 None None 0.91 in 0.0 iph
06/02/2015 05:26 Wet 54.7F 67F 32F 5 0% 0.00 in 0% 0 mhos 1 None None 0.91 in 0.0 iph
06/02/2015 05:16 Wet 55.0F 67F 32F 5 0% 0.00 in 0% 0 mhos 1 Rain Slight 0.91 in 0.0 iph
Date/Time
(MDT)
Sf
Temp Chem Water Layer Surface Precipitation
Sf Sub Frz Factor Pct Depth IcePct Cond Salin Type Intens Accum Rate
06/02/2015 05:15 Wet 55.0F 67F 32F 5 0% 0.10 in 0% 0 mhos 2 Rain Slight 0.91 in 0.0 iph
06/02/2015 05:06 Wet 54.9F 68F 32F 5 0% 0.00 in 0% 0 mhos 2 Rain Slight 0.90 in 0.0 iph
06/02/2015 05:00 Wet 54.9F 68F 32F 5 0% 0.00 in 0% 0 mhos 2 Rain Slight 0.90 in 0.0 iph
06/02/2015 04:56 Wet 54.7F 68F 32F 5 0% 0.00 in 0% 0 mhos 2 Rain Slight 0.90 in 0.0 iph
06/02/2015 04:46 Wet 55.0F 68F 32F 5 0% 0.00 in 0% 0 mhos 1 Rain Slight 0.89 in 0.0 iph
06/02/2015 04:45 Wet 54.9F 68F 32F 5 0% 0.00 in 0% 0 mhos 2 Rain Slight 0.89 in 0.0 iph
06/02/2015 04:36 Wet 55.0F 68F 32F 5 0% 0.00 in 0% 0 mhos 2 Rain Slight 0.89 in 0.0 iph
06/02/2015 04:30 Wet 55.0F 68F 32F 5 0% 0.00 in 0% 0 mhos 2 Rain Slight 0.88 in 0.0 iph
06/02/2015 04:26 Wet 55.0F 68F 32F 5 0% 0.00 in 0% 0 mhos 2 Rain Slight 0.88 in 0.0 iph
06/02/2015 04:16 Wet 55.0F 68F 32F 5 0% 0.00 in 0% 0 mhos 3 Rain Slight 0.87 in 0.0 iph
06/02/2015 04:06 Wet 55.0F 68F 32F 5 0% 0.00 in 0% 0 mhos 3 Rain Slight 0.87 in 0.0 iph
06/02/2015 04:00 Wet 55.0F 68F 32F 5 0% 0.00 in 0% 0 mhos 2 Rain Slight 0.87 in 0.0 iph
06/02/2015 03:56 Wet 54.9F 68F 32F 5 0% 0.00 in 0% 0 mhos 2 Rain Slight 0.87 in 0.0 iph
06/02/2015 03:46 Wet 54.7F 68F 32F 5 0% 0.00 in 0% 0 mhos 3 Rain Slight 0.86 in 0.0 iph
06/02/2015 03:45 Wet 54.7F 68F 32F 5 0% 0.00 in 0% 0 mhos 3 Rain Slight 0.86 in 0.0 iph
Date/Time
(MDT)
Sf
Temp Chem Water Layer Surface Precipitation
Sf Sub Frz Factor Pct Depth IcePct Cond Salin Type Intens Accum Rate
06/02/2015 03:36 Wet 54.7F 68F 32F 5 0% 0.00 in 0% 0 mhos 3 Rain Slight 0.86 in 0.0 iph
06/02/2015 03:30 Wet 55.0F 68F 32F 5 0% 0.00 in 0% 0 mhos 3 Rain Slight 0.86 in 0.0 iph
06/02/2015 03:26 Wet 54.7F 68F 32F 5 0% 0.00 in 0% 0 mhos 5 Rain Slight 0.85 in 0.0 iph
06/02/2015 03:16 Wet 54.9F 68F 32F 5 0% 0.00 in 0% 0 mhos 4 Rain Slight 0.85 in 0.0 iph
06/02/2015 03:15 Wet 54.9F 68F 32F 5 0% 0.00 in 0% 0 mhos 4 Rain Slight 0.85 in 0.0 iph
06/02/2015 03:06 Wet 54.7F 68F 32F 5 0% 0.00 in 0% 0 mhos 2 Rain Slight 0.85 in 0.0 iph
06/02/2015 03:00 Wet 55.0F 68F 32F 5 0% 0.00 in 0% 0 mhos 2 Rain Slight 0.85 in 0.0 iph
06/02/2015 02:55 Wet 55.2F 68F 32F 5 0% 0.00 in 0% 0 mhos 2 Rain Slight 0.85 in 0.0 iph
06/02/2015 02:45 Wet 55.2F 68F 32F 5 0% 0.00 in 0% 0 mhos 3 Rain Slight 0.85 in 0.0 iph
06/02/2015 02:45 Wet 55.2F 68F 32F 5 0% 0.00 in 0% 0 mhos 3 Rain Slight 0.85 in 0.0 iph
06/02/2015 02:35 Wet 55.8F 68F 32F 5 0% 0.00 in 0% 0 mhos 4 Rain Slight 0.84 in 0.0 iph
06/02/2015 02:30 Wet 55.4F 68F 32F 5 0% 0.00 in 0% 0 mhos 2 Rain Slight 0.84 in 0.0 iph
06/02/2015 02:25 Wet 55.8F 68F 32F 5 0% 0.00 in 0% 0 mhos 3 Rain Slight 0.84 in 0.0 iph
06/02/2015 02:15 Wet 55.8F 68F 32F 5 0% 0.00 in 0% 0 mhos 2 Rain Slight 0.83 in 0.0 iph
06/02/2015 02:15 Wet 55.8F 69F 32F 5 0% 0.00 in 0% 0 mhos 2 Rain Slight 0.83 in 0.0 iph
Date/Time
(MDT)
Sf
Temp Chem Water Layer Surface Precipitation
Sf Sub Frz Factor Pct Depth IcePct Cond Salin Type Intens Accum Rate
06/02/2015 02:05 Wet 56.3F 69F 32F 5 0% 0.00 in 0% 0 mhos 1 Rain Slight 0.83 in 0.0 iph
06/02/2015 02:01 Wet 55.8F 69F 32F 5 0% 0.00 in 0% 0 mhos 3 Rain Slight 0.82 in 0.0 iph
06/02/2015 01:55 Wet 55.8F 69F 32F 5 0% 0.00 in 0% 0 mhos 2 Rain Slight 0.82 in 0.0 iph
06/02/2015 01:45 Wet 56.1F 69F 32F 5 0% 0.00 in 0% 0 mhos 6 Rain Slight 0.81 in 0.0 iph
06/02/2015 01:45 Wet 56.1F 69F 32F 5 0% 0.00 in 0% 0 mhos 6 Rain Slight 0.81 in 0.0 iph
06/02/2015 01:35 Wet 56.7F 69F 32F 5 0% 0.00 in 0% 0 mhos 5 Rain Slight 0.81 in 0.0 iph
06/02/2015 01:30 Wet 56.5F 69F 32F 5 0% 0.00 in 0% 0 mhos 6 Rain Slight 0.80 in 0.1 iph
06/02/2015 01:25 Wet 56.7F 69F 32F 5 0% 0.00 in 0% 0 mhos 5 Rain Slight 0.80 in 0.0 iph
06/02/2015 01:15 Wet 56.8F 69F 32F 5 0% 0.00 in 0% 0 mhos 7 Rain Slight 0.80 in 0.0 iph
06/02/2015 01:15 Wet 56.8F 69F 32F 5 0% 0.00 in 0% 0 mhos 7 Rain Slight 0.80 in 0.0 iph
06/02/2015 01:05 Wet 56.8F 69F 32F 5 0% 0.00 in 0% 0 mhos 5 None None 0.79 in 0.0 iph
06/02/2015 01:00 Wet 57.0F 69F 32F 5 0% 0.00 in 0% 0 mhos 5 None None 0.79 in 0.0 iph
06/02/2015 00:55 Wet 56.8F 69F 32F 5 0% 0.00 in 0% 0 mhos 5 Rain Slight 0.79 in 0.0 iph
06/02/2015 00:46 Wet 57.0F 69F 32F 5 0% 0.00 in 0% 0 mhos 5 Rain Slight 0.79 in 0.0 iph
06/02/2015 00:45 Wet 57.0F 69F 32F 5 0% 0.00 in 0% 0 mhos 5 Rain Slight 0.79 in 0.0 iph
Date/Time
(MDT)
Sf
Temp Chem Water Layer Surface Precipitation
Sf Sub Frz Factor Pct Depth IcePct Cond Salin Type Intens Accum Rate
06/02/2015 00:35 Wet 57.2F 69F 32F 5 0% 0.00 in 0% 0 mhos 7 Rain Slight 0.79 in 0.0 iph
06/02/2015 00:25 Wet 57.4F 69F 32F 5 0% 0.00 in 0% 0 mhos 3 None None 0.79 in 0.0 iph
06/02/2015 00:16 Wet 57.7F 69F 32F 5 0% 0.00 in 0% 0 mhos 4 None None 0.79 in 0.0 iph
06/02/2015 00:15 Wet 57.7F 69F 32F 5 0% 0.00 in 0% 0 mhos 4 None None 0.79 in 0.0 iph
06/02/2015 00:05 Wet 57.7F 69F 32F 5 0% 0.00 in 0% 0 mhos 2 Rain Slight 0.79 in 0.0 iph
06/01/2015 23:55 Wet 57.6F 69F 32F 5 0% 0.00 in 0% 0 mhos 1 Rain Slight 0.78 in 0.0 iph
06/01/2015 23:46 Wet 57.6F 69F 32F 5 0% 0.00 in 0% 0 mhos 2 Rain Slight 0.78 in 0.1 iph
06/01/2015 23:45 Wet 57.6F 69F 32F 5 0% 0.10 in 0% 0 mhos 1 Rain Slight 0.77 in 0.1 iph
06/01/2015 23:34 Wet 57.9F 69F 32F 5 0% 0.00 in 0% 0 mhos 2 Rain Slight 0.76 in 0.0 iph
06/01/2015 23:30 Wet 57.9F 69F 32F 5 0% 0.00 in 0% 0 mhos 1 Rain Slight 0.76 in 0.1 iph
06/01/2015 23:24 Wet 58.1F 69F 32F 5 0% 0.00 in 0% 0 mhos 1 Rain Moderate 0.75 in 0.1 iph
06/01/2015 23:16 Wet 57.9F 69F 32F 5 0% 0.00 in 0% 0 mhos 1 Rain Moderate 0.74 in 0.1 iph
06/01/2015 23:14 Wet 58.1F 69F 32F 5 0% 0.00 in 0% 0 mhos 1 Rain Moderate 0.74 in 0.1 iph
06/01/2015 23:04 Wet 58.6F 69F 32F 5 0% 0.00 in 0% 0 mhos 1 Rain Moderate 0.72 in 0.2 iph
06/01/2015 22:34 Wet 58.6F 69F 32F 5 0% 0.00 in 0% 0 mhos 1 Rain Slight 0.63 in 0.1 iph
Date/Time
(MDT)
Sf
Temp Chem Water Layer Surface Precipitation
Sf Sub Frz Factor Pct Depth IcePct Cond Salin Type Intens Accum Rate
06/01/2015 22:31 Wet 58.8F 69F 32F 5 0% 0.00 in 0% 0 mhos 2 Rain Slight 0.63 in 0.1 iph
06/01/2015 22:24 Wet 58.8F 69F 32F 5 0% 0.00 in 0% 0 mhos 2 Rain Slight 0.62 in 0.1 iph
06/01/2015 22:14 Wet 59.2F 69F 32F 5 0% 0.00 in 0% 0 mhos 1 Rain Slight 0.61 in 0.0 iph
06/01/2015 22:04 Wet 59.5F 69F 32F 5 0% 0.00 in 0% 0 mhos 2 Rain Slight 0.60 in 0.0 iph
06/01/2015 22:00 Wet 59.7F 69F 32F 5 0% 0.00 in 0% 0 mhos 3 Rain Slight 0.60 in 0.0 iph
06/01/2015 21:54 Wet 59.5F 69F 32F 5 0% 0.10 in 0% 0 mhos 2 Rain Slight 0.60 in 0.1 iph
06/01/2015 21:44 Wet 59.7F 69F 32F 5 0% 0.00 in 0% 0 mhos 4 Rain Slight 0.59 in 0.1 iph
06/01/2015 21:34 Wet 59.9F 69F 32F 5 0% 0.00 in 0% 0 mhos 2 Rain Slight 0.58 in 0.0 iph
06/01/2015 21:30 Wet 59.7F 69F 32F 5 0% 0.00 in 0% 0 mhos 2 Rain Slight 0.58 in 0.0 iph
06/01/2015 21:24 Wet 59.5F 69F 32F 5 0% 0.10 in 0% 0 mhos 2 Rain Slight 0.57 in 0.0 iph
06/01/2015 21:14 Wet 60.1F 69F 32F 5 0% 0.00 in 0% 0 mhos 2 Rain Moderate 0.56 in 0.1 iph
06/01/2015 21:04 Wet 60.6F 69F 32F 5 0% 0.10 in 0% 0 mhos 2 Rain Moderate 0.53 in 0.2 iph
06/01/2015 20:54 Wet 61.5F 69F 32F 5 0% 0.00 in 0% 0 mhos 2 Rain Moderate 0.51 in 0.1 iph
06/01/2015 20:46 Wet 61.7F 69F 32F 5 0% 0.00 in 0% 0 mhos 2 Rain Moderate 0.50 in 0.2 iph
06/01/2015 20:43 Wet 61.7F 69F 32F 5 0% 0.00 in 0% 0 mhos 1 Rain Moderate 0.49 in 0.3 iph
Date/Time
(MDT)
Sf
Temp Chem Water Layer Surface Precipitation
Sf Sub Frz Factor Pct Depth IcePct Cond Salin Type Intens Accum Rate
06/01/2015 20:33 Wet 62.1F 69F 32F 5 0% 0.00 in 0% 0 mhos 2 Rain Heavy 0.45 in 0.3 iph
06/01/2015 20:30 Wet 62.2F 69F 32F 5 0% 0.00 in 0% 0 mhos 2 Rain Moderate 0.44 in 0.2 iph
06/01/2015 20:23 Wet 62.6F 69F 32F 5 0% 0.00 in 0% 0 mhos 2 Rain Moderate 0.42 in 0.2 iph
06/01/2015 20:13 Wet 63.1F 69F 32F 5 0% 0.40 in 0% 0 mhos 0 Rain Moderate 0.40 in 0.2 iph
06/01/2015 20:03 Wet 63.1F 68F 32F 5 0% 0.10 in 0% 0 mhos 2 Rain Moderate 0.36 in 0.2 iph
06/01/2015 20:00 Wet 63.1F 68F 32F 5 0% 0.00 in 0% 0 mhos 2 Rain Moderate 0.35 in 0.1 iph
06/01/2015 19:53 Wet 63.5F 68F 32F 5 0% 0.00 in 0% 0 mhos 2 Rain Slight 0.34 in 0.0 iph
06/01/2015 19:46 Wet 63.7F 68F 32F 5 0% 0.10 in 0% 0 mhos 1 Rain Moderate 0.33 in 0.1 iph
06/01/2015 19:43 Wet 63.9F 68F 32F 5 0% 0.00 in 0% 0 mhos 2 Rain Moderate 0.33 in 0.1 iph
06/01/2015 19:33 Wet 64.2F 68F 32F 5 0% 0.00 in 0% 0 mhos 1 Rain Moderate 0.30 in 0.1 iph
06/01/2015 19:30 Wet 64.2F 68F 32F 5 0% 0.10 in 0% 0 mhos 1 Rain Moderate 0.30 in 0.1 iph
06/01/2015 19:23 Wet 64.8F 68F 32F 5 0% 0.00 in 0% 0 mhos 1 Rain Moderate 0.29 in 0.1 iph
06/01/2015 19:15 Wet 64.6F 68F 32F 5 0% 0.00 in 0% 0 mhos 1 Rain Moderate 0.26 in 0.1 iph
06/01/2015 19:13 Wet 64.9F 68F 32F 5 0% 0.00 in 0% 0 mhos 1 Rain Moderate 0.26 in 0.1 iph
06/01/2015 19:03 Wet 65.1F 68F 32F 5 0% 0.00 in 0% 0 mhos 2 Rain Heavy 0.20 in 0.5 iph
Date/Time
(MDT)
Sf
Temp Chem Water Layer Surface Precipitation
Sf Sub Frz Factor Pct Depth IcePct Cond Salin Type Intens Accum Rate
06/01/2015 19:00 Wet 65.1F 68F 32F 5 0% 0.00 in 0% 0 mhos 1 Rain Moderate 0.18 in 0.3 iph
06/01/2015 18:53 Wet 66.0F 68F 32F 5 0% 0.10 in 0% 0 mhos 2 Rain Heavy 0.15 in 0.5 iph
06/01/2015 18:43 Wet 67.8F 68F 32F 5 0% 0.00 in 0% 0 mhos 2 Rain Moderate 0.10 in 0.2 iph
06/01/2015 18:33 Wet 68.5F 68F 32F 15 0% 0.00 in 0% 0 mhos 17 Rain Slight 0.06 in 0.0 iph
06/01/2015 18:30 Wet 69.4F 68F 32F 10 0% 0.00 in 0% 0 mhos 9 Rain Slight 0.06 in 0.0 iph
06/01/2015 18:23 Wet 70.5F 68F 32F 10 0% 0.00 in 0% 0 mhos 9 Rain Slight 0.06 in 0.0 iph
06/01/2015 18:15 Wet 72.0F 68F 32F 10 0% 0.00 in 0% 0 mhos 18 Rain Slight 0.06 in 0.0 iph
06/01/2015 18:13 Wet 72.3F 68F 32F 10 0% 0.00 in 0% 0 mhos 16 Rain Slight 0.05 in 0.0 iph
06/01/2015 18:03 Wet 74.8F 67F 32F 10 0% 0.00 in 0% 0 mhos 9 Rain Slight 0.05 in 0.0 iph
06/01/2015 18:01 Wet 74.8F 67F 32F 10 0% 0.00 in 0% 0 mhos 10 None None 0.05 in 0.0 iph
06/01/2015 17:53 Wet 75.7F 67F 32F 10 0% 0.00 in 0% 0 mhos 7 Rain Slight 0.05 in 0.0 iph
06/01/2015 17:45 Wet 77.9F 67F 32F 5 0% 0.00 in 0% 0 mhos 12 None None 0.05 in 0.0 iph
06/01/2015 17:43 Wet 78.1F 67F 32F 5 0% 0.00 in 0% 0 mhos 12 None None 0.05 in 0.0 iph
06/01/2015 17:33 Wet 78.8F 67F 32F 15 0% 0.00 in 0% 0 mhos 10 Rain Slight 0.05 in 0.0 iph
06/01/2015 17:30 Wet 79.3F 67F 32F 20 0% 0.00 in 0% 0 mhos 13 Rain Slight 0.04 in 0.0 iph
Date/Time
(MDT)
Sf
Temp Chem Water Layer Surface Precipitation
Sf Sub Frz Factor Pct Depth IcePct Cond Salin Type Intens Accum Rate
06/01/2015 17:23 Wet 81.1F 67F 32F 20 0% 0.00 in 0% 0 mhos 12 Rain Heavy 0.03 in 0.5 iph
06/01/2015 17:15 Dry 92.7F 67F - - - - - 0 mhos 1 Rain Slight 0.00 in 0.0 iph
06/01/2015 17:13 Dry 95.9F 67F - - - - - 0 mhos 0 None None 0.00 in 0.0 iph
06/01/2015 17:02 Dry 98.1F 67F - - - - - 0 mhos 0 None None 0.00 in 0.0 iph
06/01/2015 17:00 Dry 94.1F 67F - - - - - 0 mhos 0 None None 0.00 in 0.0 iph
06/01/2015 16:52 Dry 96.3F 67F - - - - - 0 mhos 0 None None 0.00 in 0.0 iph
06/01/2015 16:46 Dry 101.5F 67F - - - - - 0 mhos 0 None None 0.00 in 0.0 iph
06/01/2015 16:42 Dry 97.7F 67F - - - - - 0 mhos 0 None None 0.00 in 0.0 iph
06/01/2015 16:32 Dry 103.3F 67F - - - - - 0 mhos 0 None None 0.00 in 0.0 iph
06/01/2015 16:30 Dry 100.0F 67F - - - - - 0 mhos 0 None None 0.00 in 0.0 iph
06/01/2015 16:22 Dry 99.7F 67F - - - - - 0 mhos 0 None None 0.00 in 0.0 iph
06/01/2015 16:15 Dry 106.7F 67F - - - - - 0 mhos 0 None None 0.00 in 0.0 iph
06/01/2015 16:12 Dry 107.4F 67F - - - - - 0 mhos 0 None None 0.00 in 0.0 iph
06/01/2015 16:02 Dry 108.0F 67F - - - - - 0 mhos 0 None None 0.00 in 0.0 iph
06/01/2015 16:00 Dry 107.8F 67F - - - - - 0 mhos 0 None None 0.00 in 0.0 iph
Date/Time
(MDT)
Sf
Temp Chem Water Layer Surface Precipitation
Sf Sub Frz Factor Pct Depth IcePct Cond Salin Type Intens Accum Rate
06/01/2015 15:52 Dry 106.2F 67F - - - - - 0 mhos 0 None None 0.00 in 0.0 iph
06/01/2015 15:46 Dry 106.5F 67F - - - - - 0 mhos 0 None None 0.00 in 0.0 iph
06/01/2015 15:42 Dry 105.6F 67F - - - - - 0 mhos 0 None None 0.00 in 0.0 iph
06/01/2015 15:32 Dry 106.7F 67F - - - - - 0 mhos 0 None None 0.00 in 0.0 iph
06/01/2015 15:30 Dry 106.3F 67F - - - - - 0 mhos 0 None None 0.00 in 0.0 iph
06/01/2015 15:22 Dry 105.8F 67F - - - - - 0 mhos 0 None None 0.00 in 0.0 iph
06/01/2015 15:15 Dry 104.4F 67F - - - - - 0 mhos 0 None None 0.00 in 0.0 iph
06/01/2015 15:12 Dry 102.2F 67F - - - - - 0 mhos 0 None None 0.00 in 0.0 iph
06/01/2015 15:02 Dry 101.8F 67F - - - - - 0 mhos 0 None None 0.00 in 0.0 iph
06/01/2015 15:00 Dry 101.7F 67F - - - - - 0 mhos 0 None None 0.00 in 0.0 iph
06/01/2015 14:52 Dry 102.0F 67F - - - - - 0 mhos 0 None None 0.00 in 0.0 iph
06/01/2015 14:45 Dry 101.5F 67F - - - - - 0 mhos 0 None None 0.00 in 0.0 iph
06/01/2015 14:42 Dry 100.0F 67F - - - - - 0 mhos 0 None None 0.00 in 0.0 iph
06/01/2015 14:32 Dry 99.1F 67F - - - - - 0 mhos 0 None None 0.00 in 0.0 iph
06/01/2015 14:30 Dry 98.8F 66F - - - - - 0 mhos 0 None None 0.00 in 0.0 iph
Date/Time
(MDT)
Sf
Temp Chem Water Layer Surface Precipitation
Sf Sub Frz Factor Pct Depth IcePct Cond Salin Type Intens Accum Rate
06/01/2015 14:22 Dry 98.2F 67F - - - - - 0 mhos 0 None None 0.00 in 0.0 iph
06/01/2015 14:15 Dry 97.5F 66F - - - - - 0 mhos 0 None None 0.00 in 0.0 iph
06/01/2015 14:11 Dry 97.3F 66F - - - - - 0 mhos 0 None None 0.00 in 0.0 iph
06/01/2015 14:01 Dry 98.4F 66F - - - - - 0 mhos 0 None None 0.00 in 0.0 iph
06/01/2015 14:00 Dry 98.2F 66F - - - - - 0 mhos 0 None None 0.00 in 0.0 iph
06/01/2015 13:51 Dry 99.7F 66F - - - - - 0 mhos 0 None None 0.00 in 0.0 iph
06/01/2015 13:46 Dry 99.0F 66F - - - - - 0 mhos 0 None None 0.00 in 0.0 iph
06/01/2015 13:41 Dry 98.2F 66F - - - - - 0 mhos 0 None None 0.00 in 0.0 iph
06/01/2015 13:31 Dry 97.3F 66F - - - - - 0 mhos 0 None None 0.00 in 0.0 iph
06/01/2015 13:21 Dry 99.0F 66F - - - - - 0 mhos 0 None None 0.00 in 0.0 iph
06/01/2015 13:15 Dry 98.4F 66F - - - - - 0 mhos 0 None None 0.00 in 0.0 iph
06/01/2015 13:11 Dry 99.7F 67F - - - - - 0 mhos 0 None None 0.00 in 0.0 iph
06/01/2015 13:01 Dry 100.4F 67F - - - - - 0 mhos 0 None None 0.00 in 0.0 iph
06/01/2015 13:00 Dry 100.2F 66F - - - - - 0 mhos 0 None None 0.00 in 0.0 iph
06/01/2015 12:51 Dry 102.0F 67F - - - - - 0 mhos 0 None None 0.00 in 0.0 iph
Date/Time
(MDT)
Sf
Temp Chem Water Layer Surface Precipitation
Sf Sub Frz Factor Pct Depth IcePct Cond Salin Type Intens Accum Rate
06/01/2015 12:45 Dry 102.4F 67F - - - - - 0 mhos 0 None None 0.00 in 0.0 iph
06/01/2015 12:41 Dry 102.0F 67F - - - - - 0 mhos 0 None None 0.00 in 0.0 iph
06/01/2015 12:31 Dry 102.4F 67F - - - - - 0 mhos 0 None None 0.00 in 0.0 iph
06/01/2015 12:30 Dry 102.7F 67F - - - - - 0 mhos 0 None None 0.00 in 0.0 iph
06/01/2015 12:21 Dry 105.4F 67F - - - - - 0 mhos 0 None None 0.00 in 0.0 iph
06/01/2015 12:15 Dry 105.3F 67F - - - - - 0 mhos 0 None None 0.00 in 0.0 iph
06/01/2015 12:11 Dry 102.2F 67F - - - - - 0 mhos 0 None None 0.00 in 0.0 iph
06/01/2015 12:01 Dry 101.5F 67F - - - - - 0 mhos 0 None None 0.00 in 0.0 iph
06/01/2015 12:00 Dry 101.1F 67F - - - - - 0 mhos 0 None None 0.00 in 0.0 iph
06/01/2015 11:51 Dry 99.7F 67F - - - - - 0 mhos 0 None None 0.00 in 0.0 iph
06/01/2015 11:45 Dry 98.8F 67F - - - - - 0 mhos 0 None None 0.00 in 0.0 iph
06/01/2015 11:41 Dry 98.4F 67F - - - - - 0 mhos 0 None None 0.00 in 0.0 iph
Change End Date:
Copyright © 1998-2005 Surface Systems, Inc.
All Rights Reserved
Send comments about the data to:
SCAN Web ® is a registered trademark of Surface Systems, Inc.
SCAN Web Version 5.6